CAPE
0 2 86 599 95 591 311 41 17 29 27 52 170 316 353 357 11 112 31 35 0 0 374 1121 1252 1198 1359 1368 1344 1410 1417 1461 1468 1513 1691 1739 1622 1586 1456 1308 1328 1298 1561 2395 1984 1933 1979 2219 2144
18 444 513 23 98 194 137 170 172 180 321 198 265 167 138 93 103 94 129 85 40 13 76 745 1591 1089 1334 1459 1518 1443 1424 1536 1587 1561 1682 1721 1558 1505 1436 1417 1408 1354 1520 1428 2388 2159 1861 1708 1893
2 597 744 99 15 225 266 325 351 445 356 287 165 240 274 98 182 333 120 162 250 153 228 737 1489 1042 1186 1519 1472 1716 1578 1797 1845 1787 1659 1570 1538 1462 1367 1336 1319 1300 1303 1463 1579 2164 2105 1788 1627
187 615 93 57 317 345 282 351 456 347 252 313 417 369 326 143 303 154 151 202 152 580 1202 1249 1331 1602 1444 1709 1866 2011 1996 1794 1803 1688 1642 1524 1367 1193 1270 1506 1696 1891 1638 1436 1569 1874 2134 2307 1801
235 1021 522 474 402 370 318 422 331 510 379 429 462 235 291 312 256 173 202 178 460 1221 1197 1335 1900 1791 1715 1770 1763 1704 1604 1555 1546 1506 1377 1335 1571 1829 1654 1079 1536 1316 1616 1546 1304 1578 1799 1535 1617
361 230 42 309 124 168 275 478 539 393 375 345 343 392 434 330 202 283 262 212 731 845 745 1320 1625 1571 1572 1504 1478 1481 1407 1309 1284 1334 1436 1353 1398 1557 1019 1080 921 1244 1579 1391 1387 1571 1498 1690 1609
314 204 283 263 183 75 53 419 506 301 399 401 286 216 318 145 230 326 457 584 801 604 946 994 1055 1442 1485 1538 1406 1268 1130 986 1083 995 1090 1086 1211 1158 1283 861 1043 1269 1260 1302 1472 1376 1479 1529 1760
312 1 2 29 97 2 45 78 572 361 468 592 531 109 143 158 174 396 355 693 818 935 700 722 803 1142 1173 1385 1018 1035 928 1176 1275 1236 1331 1374 1080 967 642 336 860 1405 1252 1082 1331 1386 1234 1260 1379
16 4 8 18 30 2 45 9 30 327 632 649 786 201 187 118 195 307 457 657 596 744 475 764 398 930 1276 1140 922 1186 680 193 188 176 116 518 551 85 0 120 574 1055 1348 1220 873 1320 1208 1276 1242
53 38 8 6 17 8 2 0 311 151 616 567 901 617 249 129 189 325 484 556 640 430 332 403 495 792 994 966 133 216 0 0 0 0 0 0 207 8 0 18 481 716 995 937 1142 1522 1059 1004 882
0 22 19 42 13 12 17 46 160 38 909 745 752 542 298 147 170 272 432 601 400 326 350 448 628 1029 806 678 1 0 0 0 0 0 0 0 66 7 3 0 409 434 551 501 787 1041 999 556 460
1 27 22 14 84 82 340 13 0 59 911 706 633 547 165 163 347 262 284 352 377 501 520 539 678 974 783 853 5 0 0 0 0 0 0 0 46 474 198 239 392 179 516 417 741 530 663 206 215
2 0 12 27 82 16 24 25 0 165 424 500 726 405 210 135 382 433 401 308 399 445 519 361 785 899 1006 662 9 0 0 0 0 0 1 1 174 344 284 341 673 252 370 550 706 774 530 393 434
0 0 23 27 15 79 28 437 101 245 331 427 289 218 217 163 251 354 356 425 520 609 474 490 812 999 1200 526 17 0 0 201 25 35 396 496 327 314 408 248 96 344 180 295 750 564 631 604 365
0 0 5 14 40 80 4 286 238 388 250 237 94 145 169 83 195 299 363 523 678 715 744 776 778 1083 1301 780 689 372 95 174 455 230 457 211 593 513 482 739 130 206 605 494 547 632 634 217 496
0 10 5 0 0 77 57 245 476 362 357 227 241 125 174 146 290 499 482 521 878 1024 894 880 1053 1433 1418 1458 1063 573 432 694 402 796 459 325 340 711 1199 490 412 289 760 690 476 420 430 176 322
2 16 12 0 0 52 62 205 566 511 406 216 144 110 261 306 483 493 479 623 808 1098 1137 1183 1344 1329 1434 1560 1171 655 30 344 457 507 385 575 573 357 655 141 45 395 1085 816 826 623 502 580 450
17 1 7 7 0 1 68 113 515 496 475 227 402 244 203 319 741 791 838 731 1023 981 1247 1244 1376 1189 1238 1266 1259 1026 880 743 821 729 535 363 544 471 765 133 4 848 491 365 526 500 627 513 794
8 0 0 0 0 0 9 31 198 368 487 362 448 408 538 296 681 1038 917 766 1112 1261 1384 1460 1596 1612 1681 1496 1266 1064 851 706 836 880 711 577 816 764 698 828 380 495 1104 701 583 886 738 272 699
0 0 6 2 0 0 6 60 122 203 123 434 458 354 400 587 448 756 846 1182 752 1484 1551 1709 1756 2036 1886 1685 1477 1411 1124 775 669 1018 816 1106 1196 877 832 584 623 761 773 879 1105 1300 1518 633 410
0 0 15 5 0 0 3 0 342 191 57 399 394 358 144 642 597 968 737 797 952 1475 1701 2188 2301 2449 2293 2208 1782 1578 1541 871 1114 221 1332 1397 1261 1200 986 1033 829 980 1040 1032 1034 1040 1147 617 249
2 2 0 0 0 0 0 0 19 0 76 93 312 247 4 246 742 1086 1038 880 909 1760 1850 2240 2480 2873 2695 2535 2100 1642 1266 572 1001 868 737 1217 881 821 1403 435 541 1282 1355 1281 659 1059 1010 923 206
0 0 0 0 0 0 8 0 16 54 6 100 140 461 82 601 831 942 1109 1143 1165 1553 1966 2384 2668 2877 2955 2868 2539 1976 1777 1753 1706 1481 1319 994 1486 1443 1401 1087 627 1274 1225 1162 1037 1048 930 862 180
0 0 0 0 0 0 0 12 65 140 174 112 152 380 276 649 908 993 998 1156 1363 1682 1951 2208 2928 3247 3135 3363 2922 2195 1884 1451 1481 785 1204 1693 1784 1608 1722 1367 1227 772 1176 1410 1240 984 1188 1056 452
0 0 0 0 0 0 32 50 169 61 80 205 264 397 396 379 700 1137 1140 1167 1336 1729 2023 2321 3030 3376 3675 3451 3348 3276 2485 2027 1717 1970 1252 1634 1617 1003 520 333 929 875 897 697 927 891 1263 1381 1010
0 0 0 1 5 1 33 139 100 19 9 242 235 510 405 242 625 1031 1350 1575 1523 1815 1903 2167 3238 3597 3761 3727 3572 3499 3593 3239 3014 2297 1715 1555 1599 1364 923 144 0 170 1272 1086 928 737 1085 965 1184
0 0 0 0 0 23 13 9 2 5 27 317 978 784 491 230 292 261 1417 1756 1849 2109 2191 2202 3045 3477 3756 3674 3643 3610 3499 3062 3025 2527 2511 2838 2309 1724 1429 1078 807 730 1680 1382 1087 832 815 857 1207
0 0 0 0 0 28 7 0 184 210 162 78 1144 913 494 552 1030 1188 1485 2176 2353 2430 2520 2508 3146 3352 3521 3485 3545 3443 3147 3083 2785 3082 2695 2582 1449 1496 1568 1504 1516 1158 1425 1589 1615 1681 1624 1166 921
0 0 0 1 51 45 5 17 69 0 0 1 689 1588 1799 1889 2018 2088 2164 2289 2379 2536 2598 2665 2919 3356 3228 3104 3056 2848 2973 2852 2924 2579 2337 1279 1979 2064 2087 1919 2019 2154 1903 1434 1559 1426 1561 1574 1037
27 1 32 19 90 14 6 0 0 0 2 78 1260 1795 1773 1722 1986 2226 2484 3027 3204 3308 3193 3134 2949 2849 2859 2810 2812 2851 2379 1710 1558 1307 1540 1847 580 358 484 761 1689 1768 1400 1813 1762 1636 1676 1271 1225
CIN
0 -64 -130 -32 -3 -13 -6 -52 -43 -10 -4 -3 -11 -20 -36 -30 -8 -29 -86 -48 0 0 -77 -6 -8 -11 -5 -2 -1 0 -1 -1 0 0 0 0 0 -3 -4 -16 -26 -29 -19 -2 -8 -6 -2 0 0
-175 -182 -66 -18 -38 -7 -11 -11 -5 -5 -18 -13 -8 -38 -21 -26 -57 -64 -23 -16 -86 -91 -106 -35 0 -18 -8 0 0 0 0 0 0 0 0 0 0 -5 -8 -8 -14 -16 -7 -19 0 0 -11 -18 -12
-258 -88 -17 -51 -67 -14 -19 -4 -2 -18 -18 -16 -26 -60 -33 -8 -8 -5 -9 -24 -13 -39 -27 -39 -3 -19 -12 -1 0 0 0 0 0 0 0 0 0 -9 -16 -11 -9 -11 -10 -2 -1 0 0 -11 -19
-175 -44 -462 -34 -10 -46 -30 -16 -13 -8 -3 -5 -39 -44 -8 -40 -4 -37 -21 -17 -14 -2 -10 -24 -8 -1 -1 -1 0 0 0 0 0 0 0 -5 -7 -15 -15 -5 0 0 0 -1 0 0 0 0 -5
-95 -17 -9 -8 -2 -1 -7 -22 -15 -2 -13 -4 -9 -25 -4 -4 -12 -31 -27 -1 -4 -10 -43 -13 0 -1 0 0 0 0 -1 -4 -1 -1 -4 -7 -3 0 -2 -11 -2 -4 0 0 -1 -1 -1 -3 -4
-32 -16 -53 -26 -13 -20 -2 -8 -10 -4 -10 -8 -17 -17 -1 -6 -45 -14 -20 -34 -3 -20 -41 -12 -1 -1 0 0 0 -1 0 -4 -5 -2 -1 -4 -3 0 -12 -13 -12 -4 0 0 -1 0 0 -2 -3
-24 -12 -37 -13 -2 -45 -18 -5 -31 -21 -14 -37 -9 -29 -5 -50 -23 -20 -22 -16 -3 -12 -52 -33 -7 0 0 -1 -3 -3 -6 -8 -4 -5 -4 -3 -1 -1 0 -12 -7 0 0 0 0 0 0 0 0
-21 -7 -3 -25 -45 0 -32 -39 -5 -8 -16 -20 -14 -59 -35 -33 -38 -17 -40 -17 -9 -28 -43 -26 -9 0 0 0 -11 -14 -20 -10 0 0 0 0 -6 -4 -1 -6 -5 0 0 0 0 0 0 -3 -2
-53 -3 -3 -3 -1 -3 -95 -92 -100 -4 -7 -3 -6 -25 -17 -35 -23 -18 -18 -32 -39 -7 -38 -5 -19 -2 -4 -18 -32 -18 -30 -57 -57 -55 -64 -19 -9 -92 0 -69 -2 -1 0 0 -5 0 -1 -3 -12
-41 -35 -9 -4 -4 -2 -2 0 -9 -103 -4 -5 -4 -1 -7 -37 -12 -10 -24 -17 -48 -21 -13 -14 -20 -5 -24 -37 -91 -80 0 0 0 0 0 0 -29 -129 -1 -106 -15 -6 -7 -6 -2 0 -9 -9 -8
0 -56 -70 -83 -7 -16 -84 -3 -77 -41 -4 -7 -6 -1 -2 -31 -9 -3 -7 -12 -32 -44 -20 -8 -20 -21 -42 -59 -32 -14 0 0 0 0 0 0 -52 -18 -22 -5 -12 -27 -15 -14 -14 -11 -10 -7 -35
-34 -6 -3 -16 -49 -29 -14 -69 0 -90 -7 -4 -6 -4 -30 -29 -8 -11 -6 -4 -9 -35 -26 -4 -38 -26 -45 -32 -93 0 0 0 0 0 0 -29 -85 -2 -2 -7 -32 -44 -10 -25 -30 -22 -15 -57 -76
-3 0 -1 -2 -44 -6 -8 -22 0 -38 -5 -2 -5 -8 -24 -29 -3 -2 -13 -28 -11 -19 -27 -8 -13 -47 -36 -39 -171 0 0 0 0 0 -86 -10 -60 -14 -17 -10 -34 -29 -26 -29 -12 -15 -13 -26 -17
-1 0 -4 -2 -5 -50 -32 -19 -71 -14 -6 -4 -11 -32 -24 -25 -12 -2 -37 -5 -5 -31 -36 -8 -29 -52 -30 -63 -156 0 0 -70 -97 -98 -22 -24 -30 -13 -10 -25 -61 -19 -56 -41 -10 -8 -9 -8 -14
0 0 -4 -2 -4 -57 -14 -19 -26 -11 -17 -17 -69 -36 -9 -23 -2 -4 -14 -5 -27 -34 -47 -41 -19 -31 -19 -51 -53 -85 -119 -78 -58 -75 -38 -56 -19 -7 -18 -22 -64 -36 -11 -11 -10 -14 -7 -22 -18
0 -12 -4 0 0 -103 -104 -4 -21 -18 -5 -23 -17 -55 -21 -9 -2 -10 -13 -6 -7 -22 -44 -41 -34 -27 -29 -25 -39 -71 -57 -22 -30 -28 -38 -35 -22 -3 -6 -27 -38 -49 -16 -8 -13 -16 -6 -19 -13
-2 -13 -7 0 0 -5 -12 -24 -18 -18 -2 -18 -32 -25 -6 -3 -8 -16 -14 -14 -5 -33 -19 -34 -24 -27 -38 -35 -44 -58 -152 -47 -22 -13 -20 -12 -2 -7 -18 -57 -104 -38 -8 -14 -13 -4 -12 -6 -11
-5 -4 -4 -3 0 0 -8 -37 -3 -15 -5 -14 -4 -16 -17 -3 -10 -14 -21 -31 -8 -33 -9 -8 -20 -26 -31 -20 -31 -29 -24 -23 -12 -24 -16 -13 -5 -4 -7 -68 -28 -13 -18 -25 -14 -17 -17 -16 -9
-17 -12 0 0 0 0 -4 -14 -5 -18 -4 -5 -2 -9 -2 -2 -4 -12 -18 -3 -20 -15 -5 -3 -2 -7 -5 -4 -4 -2 -7 -17 -15 -21 -18 -10 -2 -1 -4 -12 -22 -12 -6 -25 -11 -6 -23 -41 -20
0 0 -3 -4 0 0 -8 -6 -16 -22 -78 -7 -38 -124 -4 -2 -9 -13 -5 -5 -5 -6 -6 -10 -5 -7 -8 -6 -7 -5 -7 -27 -29 -12 -18 -8 -1 -6 -2 -9 -8 -11 -15 -14 -11 -11 -6 -31 -50
0 -1 -12 -8 0 0 -1 0 -2 -12 -12 -7 -4 -85 -168 -25 -23 -24 -25 -4 -3 -12 -18 -6 -7 -9 -20 -3 -4 -5 -7 -42 -46 -108 -15 -12 -11 -5 -15 -25 -20 -3 -11 -16 -13 -19 -11 -16 -72
-26 -1 -2 0 0 0 0 0 -3 0 -6 -24 -5 -96 -206 -74 -7 -30 -38 -28 -25 -11 -22 -5 -14 -6 -24 -17 -3 -7 -19 -29 -23 -41 -50 -26 -54 -55 -9 -85 -83 -5 -4 -6 -31 -20 -13 -20 -57
-3 0 0 0 0 0 -7 0 -11 -21 -19 -11 -10 -12 -179 -131 -11 -36 -31 -37 -26 -25 -27 -11 -19 -16 -5 -26 -26 -10 -17 -13 -10 -13 -23 -25 -12 -18 -16 -27 -53 -10 -5 -2 -9 -13 -9 -26 -69
0 0 0 0 0 0 0 -14 -40 -39 -52 -119 -16 -2 -117 -27 -12 -18 -20 -32 -20 -32 -38 -37 -24 -19 -21 -9 -25 -27 -14 -22 -10 -26 -10 -9 -9 -27 -16 -10 -15 -39 -12 -3 -7 -17 -17 -31 -58
0 0 0 0 0 0 -15 -6 -141 -156 -108 -107 -57 -7 -4 -18 -15 -13 -16 -33 -26 -33 -32 -36 -34 -26 -15 -17 -12 -11 -25 -30 -25 -12 -42 -32 -19 -31 -25 -3 -5 -24 -38 -28 -22 -40 -15 -15 -36
0 0 0 -1 -25 -2 -41 -40 -115 -205 -207 -162 -55 -16 -14 -10 -7 -13 -15 -12 -25 -35 -39 -32 -26 -22 -11 -9 -7 -3 -2 -6 -4 -25 -40 -40 -18 -22 -28 -88 0 -105 -23 -32 -34 -42 -33 -25 -37
0 0 0 0 0 -4 -51 -364 -56 -98 -250 -135 -7 -17 -20 -20 -6 -3 -13 -3 -15 -11 -22 -18 -15 -18 -3 -3 -4 -4 -5 -14 -7 -16 -8 -1 -1 -14 -20 -31 -41 -15 -7 -26 -30 -33 -39 -33 -12
0 0 0 0 0 -15 -31 0 -39 -154 -156 -225 -2 -14 -14 -13 -15 -14 -6 -6 -5 -3 -4 -6 -9 -9 -4 -2 -5 -5 -8 -14 -17 -3 -6 -9 -50 -22 -27 -33 -14 -25 -16 -14 -9 -6 -7 -20 -16
0 0 0 -9 -6 -11 -16 -14 -295 0 0 -8 -100 -29 -43 -44 -55 -57 -45 -26 -14 -6 -4 -3 -2 -6 -3 -5 -9 -8 -3 -3 -4 -2 -6 -51 -6 -1 -3 -6 -5 -2 -8 -10 -8 -20 -20 -9 -25
-6 -2 -4 -6 -26 -37 -49 0 -1 0 -206 -117 -56 -36 -65 -68 -66 -44 -21 -20 -23 -17 -14 -11 -23 -24 -20 -25 -17 -6 -3 -29 -27 -42 -24 -10 -85 -115 -92 -57 -2 -4 -26 -9 -3 -13 -11 -15 -16
Wind_Speed
14 16 13 11 11 17 21 18 23 22 27 25 25 22 22 20 15 17 29 27 27 26 26 28 27 25 21 23 24 23 23 22 17 15 15 16 16 15 17 19 14 15 20 21 21 21 22 21 20
16 18 8 17 13 23 22 28 24 25 23 21 23 21 24 22 23 28 24 28 27 25 26 25 24 24 20 19 20 20 20 17 12 14 15 14 15 18 19 19 17 20 18 20 19 20 20 19 20
14 16 12 21 22 19 12 24 24 23 21 21 21 20 20 23 27 23 27 27 26 24 23 22 22 21 21 18 18 18 18 16 13 13 13 15 19 20 19 18 18 19 19 20 20 20 18 18 18
14 13 17 9 32 27 26 23 23 23 22 23 19 22 21 23 21 26 27 26 24 26 21 20 19 18 17 17 16 13 13 14 13 13 15 17 19 18 17 17 17 17 17 18 19 19 19 18 19
15 14 19 21 24 23 22 23 22 21 21 22 22 22 20 20 24 25 25 25 25 21 21 20 18 18 17 14 15 14 13 13 14 13 13 10 16 16 15 16 16 16 17 18 18 19 19 18 16
17 16 21 18 20 19 21 21 22 21 21 22 24 20 18 21 23 24 25 23 27 23 22 20 19 17 16 14 13 12 11 10 11 11 11 13 16 16 16 16 16 17 18 19 18 18 18 19 19
16 17 14 20 17 19 19 22 22 19 21 18 21 22 21 22 26 25 22 23 24 23 21 21 21 17 15 14 12 9 8 8 9 11 13 15 17 18 18 17 18 18 18 19 18 18 18 19 19
14 15 17 18 16 18 19 19 21 21 21 21 19 19 21 23 25 24 23 23 22 23 20 21 18 17 14 11 10 8 7 9 11 13 15 16 19 19 18 18 19 19 19 19 19 19 19 19 19
19 14 17 17 17 16 17 20 19 20 21 19 19 20 21 24 25 24 24 21 18 20 20 20 20 17 14 13 14 13 7 10 12 14 17 19 19 19 20 21 20 19 19 19 18 18 20 20 20
13 17 17 18 17 17 19 19 17 17 19 20 20 21 21 24 23 23 22 21 22 20 19 19 18 16 14 15 12 9 11 6 19 20 22 22 16 16 20 23 22 19 18 19 18 17 18 20 21
9 14 15 21 19 22 20 19 21 19 17 18 18 22 22 24 22 22 22 23 23 21 21 22 15 17 17 14 12 11 8 7 25 23 27 27 17 12 18 19 19 16 18 19 16 16 18 15 8
13 18 18 16 19 21 21 20 23 20 21 20 21 23 23 24 21 22 21 20 21 21 21 21 17 17 15 14 12 11 10 15 23 25 25 25 21 15 16 22 17 12 17 17 18 17 13 9 17
15 13 16 17 19 20 20 21 23 22 20 20 23 21 21 22 21 22 19 20 21 20 19 18 18 15 14 14 13 13 17 20 20 24 23 22 21 18 17 11 10 16 12 17 16 15 14 16 15
12 13 14 16 17 12 20 18 22 22 21 21 21 23 23 22 21 18 14 21 19 18 15 18 17 16 15 16 16 16 18 18 20 22 20 19 19 16 12 12 14 15 12 17 18 16 16 17 19
13 13 14 15 15 16 14 20 21 23 22 22 22 22 22 22 23 20 20 20 17 17 19 17 18 17 16 16 18 17 17 19 20 20 20 19 18 15 11 11 11 22 13 15 16 17 16 18 21
16 12 10 14 12 17 20 15 19 22 22 22 22 21 21 20 23 22 20 20 19 17 19 19 19 18 17 17 18 17 17 18 18 18 19 18 18 11 10 12 8 21 23 19 18 15 14 15 13
13 10 9 11 14 12 13 13 18 19 20 19 20 19 21 22 21 20 17 18 20 20 18 19 21 18 18 17 17 17 18 17 16 17 18 18 15 11 8 10 16 18 20 20 18 11 11 14 21
12 14 12 10 10 9 10 12 15 17 18 17 19 20 20 20 21 22 21 22 22 19 21 18 19 19 19 18 17 18 17 16 14 15 17 17 17 12 8 11 15 15 16 15 9 9 11 8 23
21 9 10 11 11 11 8 9 13 15 16 17 19 21 21 20 22 21 23 23 22 20 19 18 19 18 18 17 17 17 14 15 16 17 19 17 17 13 10 11 13 14 13 13 10 10 8 9 20
21 15 13 9 9 10 10 7 14 15 14 17 12 20 20 22 21 21 24 23 21 20 18 18 17 16 16 17 17 15 13 12 20 19 16 16 14 16 13 13 12 10 12 11 9 8 10 10 16
23 23 11 20 9 11 16 10 11 16 13 17 13 9 23 24 22 22 24 23 21 20 19 19 18 16 17 17 15 14 13 14 16 14 15 12 13 14 14 13 15 9 10 11 9 8 8 8 12
18 21 14 13 23 7 10 3 8 11 9 17 20 14 23 29 22 22 24 23 21 21 20 20 19 18 17 17 16 14 12 12 13 13 14 13 11 13 12 14 15 15 9 9 10 8 8 6 6
18 20 22 21 26 24 23 4 6 5 2 8 25 12 9 34 22 20 22 22 22 21 19 19 17 17 17 17 17 15 13 12 11 14 14 14 12 10 10 11 12 12 9 8 8 5 7 7 5
14 18 25 13 18 24 20 15 4 7 4 19 24 20 10 23 17 19 20 20 19 18 18 17 16 16 17 16 15 15 13 11 14 11 14 10 8 4 6 7 9 8 8 6 3 3 3 5 7
29 25 22 8 5 7 23 26 5 4 4 25 31 20 9 1 11 16 18 19 18 17 16 16 15 13 13 14 13 11 10 9 9 8 8 17 23 24 19 22 8 6 6 9 5 9 2 5 7
15 30 29 26 24 34 32 20 17 3 2 29 34 3 1 9 10 16 17 16 16 14 12 12 11 10 9 10 10 9 8 7 5 4 6 4 10 21 17 21 20 23 6 4 4 4 2 5 9
28 33 30 34 32 22 22 25 21 20 16 17 2 7 10 18 2 21 15 13 13 11 10 9 9 8 7 6 6 6 7 7 7 11 11 7 17 13 22 16 13 8 6 3 1 5 7 13 7
25 32 30 26 30 29 28 22 15 15 29 26 3 6 6 2 5 9 10 11 10 8 8 7 7 6 6 5 5 6 7 9 11 13 17 21 20 18 18 20 21 16 8 0 1 2 1 3 7
4 34 32 33 26 27 27 26 9 9 18 49 38 5 1 5 5 8 9 8 5 6 6 6 7 8 11 11 12 14 14 13 12 15 17 15 17 21 20 21 21 14 8 4 5 5 4 4 7
21 25 25 28 24 32 31 36 11 9 14 26 30 2 4 8 7 7 8 9 10 11 12 12 11 11 12 12 13 12 13 17 16 14 17 18 21 25 27 28 23 16 15 14 9 6 6 10 9
Wind_Direction
189 185 165 317 305 152 39 23 44 91 51 45 54 44 44 78 94 68 111 103 105 107 107 112 110 103 94 100 102 101 96 89 69 58 52 48 43 37 43 50 28 28 56 63 70 69 74 69 68
212 216 148 338 359 60 41 69 73 42 24 16 47 60 32 46 66 97 91 107 107 106 111 108 106 105 96 94 97 98 96 81 55 60 55 42 42 57 62 61 44 80 70 90 77 83 82 79 81
189 210 22 41 137 31 24 47 36 38 34 25 34 12 19 66 91 88 100 104 104 107 108 104 105 103 100 93 92 90 86 77 60 55 51 52 79 88 80 83 108 126 113 141 126 122 94 93 87
190 176 10 136 107 68 83 42 54 41 40 26 42 29 56 80 74 94 105 102 99 106 96 104 101 100 97 94 89 75 70 70 60 52 66 77 121 133 128 131 163 147 126 137 145 142 129 114 111
182 221 350 22 26 36 30 64 46 42 42 34 41 64 55 66 90 96 100 102 100 89 96 100 101 101 99 93 88 81 73 72 68 61 46 344 214 211 223 192 180 170 144 149 145 145 148 138 114
252 339 326 345 4 3 12 42 42 38 40 44 55 68 67 75 98 96 106 98 107 98 100 100 98 99 98 95 86 77 64 57 52 25 337 303 247 234 203 180 190 180 169 163 143 142 143 144 141
260 350 17 4 349 13 16 36 38 47 52 59 62 66 82 88 110 99 87 97 103 98 95 103 106 100 97 94 83 64 36 12 357 341 310 279 249 226 218 192 180 178 185 180 145 139 141 150 147
320 334 356 20 31 358 20 27 40 49 54 66 66 79 90 100 111 102 98 104 95 102 95 111 101 105 96 85 75 60 23 331 323 310 297 281 237 232 233 203 189 168 173 180 167 151 156 149 151
358 332 355 9 13 8 36 26 42 60 63 44 40 90 97 108 112 108 101 99 96 93 105 112 117 110 95 91 98 104 65 316 309 302 292 271 268 276 265 243 199 176 168 169 155 141 158 158 162
20 12 20 20 31 15 15 13 37 309 59 58 54 94 98 115 115 113 108 113 114 105 105 109 106 104 99 109 97 86 128 113 285 281 267 257 315 314 302 227 191 171 166 172 156 132 149 168 197
222 18 10 40 68 38 49 10 51 73 77 67 73 100 108 121 115 117 116 115 120 108 113 129 89 105 114 111 93 99 61 34 261 266 246 230 230 137 149 177 158 154 160 167 139 130 147 133 11
356 42 37 20 59 50 43 69 17 19 62 69 84 103 111 124 109 132 119 117 110 110 118 119 105 114 118 115 104 83 91 176 216 226 229 215 206 191 130 155 134 113 167 156 161 142 111 331 153
38 14 45 53 62 47 30 29 31 40 47 68 86 94 107 118 115 127 116 118 106 115 117 116 114 109 107 112 103 109 202 213 197 197 196 189 204 221 220 26 49 158 224 166 160 148 133 150 133
10 26 51 85 61 21 53 48 39 46 61 71 88 101 110 115 117 100 78 132 116 109 101 122 112 114 114 117 119 132 175 223 185 179 163 168 178 196 74 25 174 152 78 168 182 158 158 173 165
65 69 67 37 58 28 324 70 46 62 73 83 84 100 105 116 118 110 115 125 113 126 120 117 124 122 122 122 135 132 147 173 180 170 171 171 170 156 22 40 25 235 139 155 158 167 158 170 194
133 123 345 23 61 69 61 42 65 84 88 82 95 91 101 102 118 114 121 129 113 100 124 130 130 125 129 129 142 145 152 157 163 165 171 170 177 138 78 14 57 244 235 191 183 159 149 153 195
130 354 14 32 118 85 33 48 89 100 94 74 91 94 107 112 105 109 97 105 126 118 117 125 136 134 129 128 137 143 153 154 154 162 165 170 151 123 74 102 182 200 196 184 192 143 124 318 265
314 310 328 26 28 292 79 65 96 106 104 93 106 97 102 114 122 123 124 128 133 115 130 116 131 132 134 139 139 155 157 153 133 132 154 162 164 125 79 117 159 172 155 160 27 104 128 104 250
254 342 1 9 17 352 181 75 106 115 126 115 128 114 113 116 123 118 127 121 118 124 119 120 135 123 134 139 158 155 135 156 176 175 171 156 160 131 111 125 145 149 137 140 96 95 63 24 302
258 299 322 6 23 101 117 88 117 126 129 131 83 154 111 119 108 110 127 126 128 118 118 123 131 123 134 149 160 146 119 42 195 183 156 155 136 164 148 161 155 130 140 141 115 54 13 12 334
263 259 324 299 59 122 255 340 109 132 125 136 118 68 206 155 113 118 127 129 125 119 121 123 127 124 134 156 154 142 135 112 117 162 161 122 147 163 161 162 176 140 134 147 134 116 110 41 354
259 272 323 322 279 328 138 104 137 131 118 152 151 119 138 162 120 119 126 130 124 119 123 125 126 126 132 146 162 155 128 120 133 135 129 120 121 154 150 162 174 177 144 147 145 129 119 61 18
296 273 287 290 246 213 214 162 160 109 41 132 184 133 138 210 118 112 125 128 125 118 118 123 122 126 132 134 155 148 144 151 108 172 139 117 124 140 147 145 153 162 151 152 146 103 93 108 116
313 290 240 268 190 222 202 191 168 270 311 272 181 190 129 154 105 114 125 117 120 111 110 112 114 122 133 134 140 161 166 178 37 158 161 122 134 117 111 110 117 125 145 151 98 116 71 140 166
231 250 278 320 157 162 282 292 308 191 303 250 229 161 134 111 117 126 123 119 121 111 113 108 107 108 119 136 133 127 151 166 192 121 165 250 277 348 10 184 32 97 107 159 154 350 82 140 158
273 215 251 286 297 271 270 317 306 249 240 183 217 234 284 158 154 136 126 121 113 109 108 105 100 88 93 107 121 116 106 101 98 114 175 181 236 360 33 3 287 237 88 104 145 165 158 165 174
255 246 257 266 259 298 295 301 307 281 275 172 186 145 144 167 338 161 110 116 102 107 104 102 96 76 79 64 56 91 51 37 34 11 21 39 8 7 349 20 57 179 71 51 71 174 187 192 179
228 248 275 263 276 290 282 307 288 304 258 264 260 138 115 52 339 44 69 50 68 82 101 102 98 75 68 71 62 42 34 14 1 353 348 344 353 8 8 7 357 1 13 190 267 317 282 203 198
302 242 249 261 295 302 293 297 325 336 308 253 217 248 66 63 12 0 8 11 26 24 29 75 40 27 16 12 8 1 359 358 360 352 347 357 357 354 360 357 354 359 354 320 239 249 268 254 224
270 238 272 270 301 290 293 266 321 353 76 144 196 221 87 92 67 43 15 1 1 0 357 359 12 14 13 2 357 5 6 350 348 350 348 346 343 339 336 336 342 345 341 334 328 258 250 234 241